This demonstration page uses our WeatherBlox Daily Observations layout. Learn more.

Left ArrowRight Arrow

39.12711, -84.51439

Hourly Observations for October 12, 2020

Temp ( °F °C ) Dew Point ( °F °C ) Humidity (%) Winds ( mph kmh ) Pressure ( in mb ) Visibility ( mi km ) Precip ( " mm )
12:07 am 00:07 Cloudy 67 19.4 63 17.2 87 87 NNE 7 11 29.88 1012 10 16 0.00 0.00
12:53 am 00:53 Mostly Cloudy 66 18.9 62 16.7 87 87 NNE 3 6 29.87 1012 10 16 0.00 0.00
1:09 am 01:09 Cloudy 65 18.3 62 16.7 90 90 N 3 6 29.87 1012 10 16 0.00 0.00
1:19 am 01:19 Cloudy 66 18.9 62 16.7 87 87 Calm 29.87 1012 10 16 0.00 0.00
1:30 am 01:30 Cloudy 64 17.8 62 16.7 93 93 Calm 29.88 1012 10 16 0.00 0.00
1:53 am 01:53 Cloudy 64 17.8 62 16.7 93 93 Calm 29.87 1012 10 16 0.00 0.00
2:53 am 02:53 Cloudy 65 18.3 63 17.2 93 93 Calm 29.86 1011 10 16 0.00 0.00
3:53 am 03:53 Cloudy 65 18.3 63 17.2 93 93 Calm 29.85 1011 10 16 0.00 0.00
4:53 am 04:53 Cloudy 64 17.8 62 16.7 93 93 Calm 29.84 1011 10 16 0.00 0.00
5:53 am 05:53 Cloudy 64 17.8 62 16.7 93 93 NE 3 6 29.85 1011 9 14 0.00 0.00
6:39 am 06:39 Cloudy 65 18.3 63 17.2 93 93 Calm 29.85 1011 10 16 0.00 0.00
6:53 am 06:53 Cloudy 65 18.3 63 17.2 93 93 Calm 29.85 1011 10 16 0.00 0.00
7:53 am 07:53 Cloudy 66 18.9 62 16.7 87 87 Calm 29.85 1011 10 16 0.00 0.00
8:53 am 08:53 Cloudy 66 18.9 62 16.7 87 87 Calm 29.87 1011 10 16 0.00 0.00
9:53 am 09:53 Cloudy 66 18.9 62 16.7 87 87 SSE 8 13 29.87 1011 10 16 0.00 0.00
10:53 am 10:53 Cloudy 67 19.4 62 16.7 84 84 SSW 7 11 29.88 1012 10 16 0.00 0.00
11:53 am 11:53 Cloudy 70 21.1 63 17.2 79 79 S 8 13 29.87 1011 10 16 0.00 0.00
12:53 pm 12:53 Cloudy 71 21.7 63 17.2 76 76 S 9 15 29.84 1010 10 16 0.00 0.00
1:53 pm 13:53 Cloudy 73 22.8 63 17.2 71 71 S 12 19 29.80 1009 10 16 0.00 0.00
2:04 pm 14:04 Cloudy 74 23.3 64 17.8 71 71 SSE 10 17 29.78 1009 10 16 0.00 0.00
2:36 pm 14:36 Mostly Cloudy 73 22.8 63 17.2 71 71 S 14 22 29.77 1008 10 16 0.00 0.00
2:53 pm 14:53 Cloudy 74 23.3 64 17.8 71 71 S 12 19 29.76 1008 10 16 0.00 0.00
3:53 pm 15:53 Cloudy 74 23.3 63 17.2 69 69 S 9 15 29.75 1007 10 16 0.00 0.00
4:08 pm 16:08 Cloudy 74 23.3 63 17.2 69 69 SSE 12 19 29.74 1007 10 16 0.00 0.00
4:53 pm 16:53 Cloudy 75 23.9 63 17.2 66 66 S 10 17 29.75 1007 10 16 0.00 0.00
5:53 pm 17:53 Cloudy 75 23.9 62 16.7 64 64 SW 13 20 29.75 1008 10 16 0.00 0.00
6:53 pm 18:53 Cloudy 74 23.3 63 17.2 69 69 SSE 6 9 29.74 1007 10 16 0.00 0.00
7:53 pm 19:53 Cloudy 71 21.7 65 18.3 81 81 S 6 9 29.74 1007 10 16 0.00 0.00
8:34 pm 20:34 Cloudy with Nearby Thunderstorms 72 22.2 64 17.8 76 76 SW 12 19 29.76 1008 9 14 0.00 0.00
8:51 pm 20:51 Cloudy with Nearby Thunderstorms 61 16 57 14 88 88 NW 21 33 29.85 1011 8 13 0.16 4.06
8:53 pm 20:53 Cloudy with Nearby Thunderstorms 61 16.1 56 13.3 84 84 NW 21 33 29.85 1011 8 13 0.16 4.06
8:56 pm 20:56 Cloudy with Light Rain 60 15.6 54 12.2 80 80 WNW 20 31 29.86 1011 10 16 0.00 0.00
9:18 pm 21:18 Cloudy with Nearby Thunderstorms 58 14.4 54 12.2 87 87 WNW 14 22 29.88 1012 10 16 0.00 0.00
9:32 pm 21:32 Cloudy with Light Rain 58 14.4 54 12.2 87 87 NW 9 15 29.89 1012 10 16 0.00 0.00
9:53 pm 21:53 Cloudy 58 14.4 53 11.7 84 84 NW 13 20 29.90 1012 10 16 0.00 0.00
10:10 pm 22:10 Cloudy with Light Rain 58 14.4 52 11.1 81 81 VRB 7 11 29.92 1013 10 16 0.00 0.00
10:17 pm 22:17 Cloudy 58 14.4 52 11.1 81 81 NW 13 20 29.93 1014 10 16 0.00 0.00
10:53 pm 22:53 Cloudy with Light Rain 58 14.4 51 10.6 78 78 NW 8 13 29.94 1014 10 16 0.00 0.00
11:53 pm 23:53 Mostly Cloudy 57 13.9 50 10 78 78 NNW 10 17 29.98 1015 10 16 0.00 0.00

Powered by AerisWeather